Wind_Speed
10 11 11 12 12 13 13 14 14 15 15 15 16 16 17 17 18 18 19 19 19 19 19 20 20 21 21 22 23 24 25 24 24 25 25 26 27 26
12 12 12 13 13 14 15 15 15 15 16 17 17 17 18 18 18 19 20 20 20 21 21 21 21 22 23 23 24 24 25 26 25 26 26 26 27 26
13 13 13 14 14 15 15 15 16 17 18 18 18 18 18 19 20 21 21 21 21 22 22 22 23 23 23 23 24 25 25 25 26 27 27 27 26 26
14 15 15 15 15 15 16 17 17 18 18 18 18 19 19 20 21 21 22 22 22 23 23 24 24 24 24 24 25 25 25 25 26 27 27 27 27 27
15 16 16 16 16 16 17 17 18 19 19 19 19 20 21 21 21 22 23 23 23 23 24 25 25 25 25 25 26 26 27 26 26 27 27 27 28 28
16 17 17 17 17 17 17 18 19 19 20 20 21 21 22 23 23 23 24 25 25 26 26 26 26 26 26 26 26 27 27 27 27 28 29 29 29 29
17 17 17 17 18 18 19 19 19 19 20 21 22 24 24 25 24 24 25 26 26 26 26 26 26 27 27 27 27 27 27 27 27 28 29 29 29 29
18 18 18 18 19 19 20 20 20 21 21 23 24 25 25 26 26 26 26 26 26 26 27 27 27 27 27 27 27 27 28 28 28 29 30 29 29 29
20 19 20 20 20 21 21 21 22 23 23 24 24 25 26 26 26 26 26 27 27 27 27 27 27 27 27 27 27 27 28 29 29 30 30 29 29 29
22 22 22 23 22 22 22 23 23 24 25 26 26 27 27 26 27 27 27 28 28 28 27 27 28 28 29 28 29 29 30 30 30 30 30 30 30 30
24 24 24 24 24 24 25 25 25 25 26 27 27 27 27 27 27 28 28 28 29 29 28 28 28 28 29 29 29 29 30 30 30 30 30 30 30 30
26 26 26 26 26 26 27 27 26 26 27 27 27 28 28 28 29 29 29 29 29 29 28 28 28 28 28 29 29 29 29 29 29 29 29 29 30 30
28 28 28 28 28 28 28 28 28 28 28 28 28 28 29 30 30 29 29 28 28 28 27 27 28 28 29 29 29 29 29 29 29 29 29 29 29 29
30 29 29 29 29 29 29 29 28 28 28 28 29 29 29 29 29 29 28 28 27 27 27 28 28 28 29 29 29 29 29 29 29 29 29 30 29 29
31 30 30 30 29 29 29 28 28 28 29 29 29 30 30 30 29 27 27 27 27 27 28 29 29 29 29 29 29 29 29 28 28 29 29 29 29 29
31 31 31 30 29 29 29 29 29 29 30 30 30 30 30 29 29 28 28 27 27 27 28 29 29 29 29 29 29 29 29 29 28 28 28 28 28 28
32 31 30 29 29 29 29 30 30 30 31 31 31 30 30 29 29 29 29 28 28 28 28 29 29 30 29 29 29 29 29 29 28 28 28 28 28 27
32 31 31 31 31 31 31 31 31 31 31 31 32 31 31 30 30 30 30 29 29 28 29 29 29 30 30 29 29 29 29 28 28 27 27 27 28 27
33 32 32 32 32 32 33 33 32 32 32 32 32 32 31 30 30 29 29 29 29 29 29 30 29 30 30 30 29 29 29 28 27 27 26 26 26 26
33 33 34 34 34 34 34 33 33 33 33 33 32 32 31 30 30 30 29 29 29 29 30 30 30 30 30 30 29 28 28 28 27 26 25 25 25 25
33 34 34 34 34 34 33 33 34 33 33 33 32 32 31 31 30 31 30 30 30 30 30 30 30 30 29 29 28 28 28 28 27 27 26 25 25 25
34 35 35 35 34 34 33 33 33 33 33 33 33 32 32 31 31 31 31 30 30 30 31 31 31 30 29 29 28 29 28 28 28 28 27 26 26 25
35 35 35 35 35 34 34 33 32 32 32 32 32 32 31 32 32 31 30 31 31 31 31 31 31 30 29 29 29 29 28 27 27 27 27 27 26 26
Wind_Direction
320 313 308 303 297 297 297 296 295 297 297 296 296 294 293 292 293 293 293 292 291 290 288 286 284 283 280 280 280 280 279 279 280 280 279 281 281 279
319 314 308 304 300 299 298 296 295 296 296 296 295 294 294 293 293 293 292 292 290 289 288 287 286 284 284 283 282 283 280 279 279 280 280 279 279 279
316 314 310 306 302 299 297 296 295 296 297 297 296 295 295 295 294 293 292 292 291 291 289 288 286 286 286 285 285 284 282 280 280 281 281 279 280 281
316 313 311 308 303 300 297 296 295 295 294 294 296 297 296 295 295 296 295 293 292 291 289 289 289 288 287 287 286 287 285 283 283 281 280 279 280 281
321 317 314 312 308 304 299 297 297 296 295 295 295 294 295 295 295 295 295 294 293 291 290 289 289 289 288 288 286 284 285 285 284 282 281 282 282 282
324 322 318 316 312 309 304 300 297 295 295 294 294 294 295 295 295 295 295 294 292 291 291 291 290 288 288 288 287 286 285 285 284 283 282 283 283 283
324 321 319 318 316 312 308 304 299 296 296 295 295 295 295 295 296 297 296 293 292 292 292 291 290 289 288 287 287 286 286 286 286 286 285 285 285 284
321 319 317 318 317 315 311 306 303 300 299 298 297 297 297 296 295 295 295 294 293 293 292 291 291 289 288 287 287 287 286 287 286 286 286 285 284 283
317 318 317 315 316 314 312 308 304 302 299 299 298 298 298 297 296 295 295 294 293 293 291 290 289 288 288 287 286 286 286 286 287 286 286 285 284 284
314 313 315 314 312 312 311 309 305 302 300 299 299 299 299 298 296 295 294 293 294 292 291 290 290 289 289 288 287 288 287 287 286 286 286 286 286 285
310 310 311 312 310 311 310 308 306 304 302 301 299 299 298 298 296 295 294 294 293 292 291 290 290 289 289 289 288 288 288 287 286 285 286 287 287 286
308 308 309 309 308 308 308 306 304 303 303 303 301 299 298 298 297 295 294 293 293 292 292 291 290 289 290 290 289 288 288 287 286 286 287 288 288 287
305 305 306 307 306 305 306 304 302 302 301 301 300 299 300 299 297 296 294 293 293 292 292 292 291 291 291 290 289 289 288 288 287 287 288 288 288 288
303 303 303 304 304 304 304 304 301 301 301 300 300 300 300 300 299 298 296 293 292 292 292 293 292 292 292 292 290 290 289 287 286 285 286 287 288 288
303 302 303 303 303 303 302 302 301 300 300 300 300 300 299 299 299 299 298 294 292 293 294 295 294 294 295 294 293 291 290 289 287 286 286 287 287 288
302 303 303 302 302 302 301 301 300 300 299 300 299 299 299 298 297 297 296 295 293 293 295 296 296 296 296 294 293 292 291 290 289 288 288 287 288 289
301 302 303 302 301 301 300 301 300 300 299 299 299 298 298 297 296 295 294 294 293 294 294 295 296 296 295 294 293 291 292 291 289 290 290 290 290 290
300 302 302 301 300 300 300 300 299 298 297 297 298 297 296 295 295 294 294 294 294 294 294 294 295 295 295 294 292 291 291 291 290 289 290 290 290 289
298 298 299 299 299 299 299 298 298 298 297 296 297 296 296 295 293 294 295 295 294 294 294 295 294 294 294 294 292 291 291 291 291 290 289 290 290 289
296 295 296 297 297 298 298 297 296 296 295 295 295 295 295 294 293 294 295 295 295 294 294 293 294 294 294 293 291 291 291 290 289 289 288 290 290 290
295 296 296 296 296 296 296 295 294 294 293 292 292 293 292 292 292 292 293 293 293 294 294 293 293 293 293 292 291 291 291 289 289 289 288 288 288 289
295 296 296 296 296 295 295 294 293 292 291 291 291 291 290 290 290 291 292 292 293 294 294 294 293 291 291 290 290 290 289 288 289 288 287 286 287 288
295 296 295 294 294 294 293 293 292 291 291 291 290 292 290 288 289 290 291 292 292 293 293 293 292 290 289 289 288 289 289 288 289 289 287 287 287 288
Height
5873 5872 5871 5869 5868 5867 5866 5865 5864 5863 5861 5859 5858 5856 5854 5853 5851 5850 5848 5847 5845 5844 5842 5841 5839 5838 5836 5835 5833 5832 5830 5828 5827 5825 5823 5821 5820 5818
5871 5869 5868 5867 5865 5864 5863 5861 5860 5859 5857 5856 5854 5852 5850 5848 5847 5845 5844 5842 5840 5839 5837 5835 5834 5832 5830 5829 5827 5825 5823 5822 5820 5818 5816 5815 5813 5811
5868 5866 5865 5863 5862 5860 5859 5857 5856 5854 5853 5851 5849 5847 5846 5844 5842 5840 5838 5837 5835 5833 5831 5829 5827 5825 5824 5822 5820 5818 5816 5814 5813 5811 5809 5808 5806 5804
5865 5863 5861 5859 5858 5856 5854 5853 5851 5850 5848 5846 5844 5842 5841 5839 5837 5835 5833 5831 5829 5827 5825 5823 5821 5819 5817 5815 5813 5811 5809 5807 5805 5804 5802 5800 5799 5797
5862 5859 5857 5855 5853 5851 5850 5848 5846 5844 5843 5841 5839 5837 5835 5833 5831 5829 5827 5825 5822 5820 5818 5816 5814 5812 5810 5808 5806 5804 5802 5800 5798 5796 5794 5792 5791 5789
5858 5856 5853 5851 5849 5847 5845 5843 5841 5839 5838 5836 5834 5832 5830 5827 5825 5823 5821 5818 5816 5814 5812 5809 5807 5805 5803 5801 5799 5796 5794 5792 5790 5788 5786 5784 5782 5781
5854 5852 5849 5847 5844 5842 5840 5838 5836 5834 5832 5830 5828 5826 5824 5821 5819 5816 5814 5811 5809 5807 5805 5802 5800 5798 5795 5793 5791 5789 5786 5784 5782 5780 5778 5776 5774 5772
5851 5848 5845 5842 5840 5837 5835 5833 5831 5828 5826 5824 5822 5819 5817 5814 5812 5809 5807 5804 5802 5800 5797 5795 5792 5789 5787 5785 5783 5781 5779 5777 5774 5772 5770 5768 5765 5763
5846 5843 5841 5838 5835 5832 5829 5827 5825 5822 5820 5817 5815 5812 5810 5807 5805 5802 5799 5797 5794 5792 5789 5786 5784 5781 5779 5777 5775 5773 5771 5768 5766 5764 5762 5759 5757 5755
5841 5838 5836 5833 5830 5826 5824 5821 5818 5815 5813 5810 5808 5805 5802 5799 5796 5794 5792 5789 5786 5783 5781 5779 5776 5774 5771 5769 5767 5765 5762 5760 5758 5755 5753 5751 5749 5747
5835 5832 5829 5826 5823 5820 5817 5814 5811 5808 5806 5803 5800 5797 5794 5791 5789 5786 5783 5780 5778 5775 5773 5771 5768 5765 5763 5761 5758 5756 5754 5751 5749 5747 5745 5742 5740 5738
5829 5826 5823 5819 5816 5813 5810 5807 5804 5801 5798 5795 5792 5789 5786 5783 5780 5777 5774 5772 5769 5767 5765 5762 5760 5757 5755 5752 5750 5747 5745 5742 5740 5738 5736 5734 5731 5729
5822 5819 5816 5812 5809 5806 5803 5800 5796 5793 5790 5787 5784 5781 5778 5775 5772 5769 5766 5763 5761 5758 5756 5753 5751 5748 5746 5744 5741 5739 5736 5734 5732 5729 5727 5725 5723 5720
5814 5811 5808 5805 5801 5798 5795 5792 5788 5785 5782 5779 5776 5773 5770 5767 5763 5760 5757 5755 5752 5750 5747 5745 5742 5740 5737 5735 5732 5730 5727 5725 5723 5720 5718 5716 5714 5712
5806 5802 5799 5796 5793 5790 5787 5783 5780 5777 5774 5771 5768 5765 5762 5758 5755 5752 5749 5746 5744 5741 5739 5736 5734 5731 5729 5726 5724 5721 5718 5716 5713 5712 5710 5708 5706 5703
5797 5794 5791 5788 5784 5781 5778 5775 5772 5769 5766 5763 5760 5757 5753 5750 5747 5744 5741 5738 5736 5733 5731 5728 5725 5723 5720 5718 5715 5712 5709 5707 5705 5703 5701 5699 5697 5695
5788 5785 5782 5779 5776 5773 5770 5767 5763 5761 5758 5755 5751 5748 5745 5742 5739 5736 5733 5730 5728 5725 5723 5720 5717 5714 5711 5709 5706 5703 5701 5698 5696 5694 5692 5690 5688 5686
5780 5777 5774 5771 5767 5764 5761 5758 5755 5752 5749 5746 5743 5740 5737 5734 5731 5728 5725 5722 5719 5717 5714 5711 5709 5705 5703 5700 5697 5695 5692 5690 5688 5686 5684 5682 5680 5678
5771 5768 5765 5762 5759 5756 5752 5749 5746 5743 5740 5737 5734 5731 5728 5725 5722 5719 5716 5713 5711 5708 5705 5703 5700 5697 5694 5691 5689 5686 5684 5681 5679 5677 5676 5674 5672 5670
5761 5758 5755 5752 5749 5746 5743 5740 5737 5733 5730 5727 5724 5721 5718 5716 5713 5710 5707 5705 5702 5699 5696 5694 5691 5688 5686 5683 5680 5678 5676 5673 5671 5669 5667 5665 5664 5662
5751 5748 5745 5742 5739 5736 5733 5730 5727 5724 5721 5718 5715 5712 5709 5706 5703 5701 5698 5696 5693 5690 5687 5685 5682 5679 5676 5674 5672 5670 5667 5665 5663 5661 5659 5658 5656 5654
5741 5737 5734 5731 5728 5725 5722 5719 5716 5713 5710 5708 5705 5702 5699 5697 5694 5692 5689 5686 5684 5681 5678 5676 5673 5670 5668 5666 5663 5661 5658 5656 5654 5652 5651 5650 5648 5646
5730 5726 5723 5720 5717 5715 5712 5709 5706 5703 5700 5697 5695 5692 5690 5687 5685 5683 5680 5677 5674 5672 5669 5666 5663 5661 5658 5656 5654 5652 5650 5648 5646 5644 5643 5641 5639 5638